ROMMA est une association bénévole à but non lucratif. Votre soutien est indispensable : ADHERER à ROMMA ou FAIRE un DON

Chambon - (38, Isère)

Oisans (2460 m)   Longitude: 06° 10' 42" E   Latitude: 45° 01' 32" N Station partenaire n°803
 

Détail journalier du     <<     >>

Température Humidité Vent Dir Rafale Dir. rafale Neige 1 Neige 2
Heure (°C) (%) (km/h) (km/h) (cm) (cm)
01:00 9.0923ESE17ESE33
02:00 8.9934ESE15SSO33
03:00 8.4954SSE15SO43
04:00 7.8985SO12SO23
05:00 7.6995E11E21
06:00 7.5957SSO16SSO31
07:00 7.49910SSO15SSO20
08:00 7.69512SO17SO00
09:00 7.98910SO17SO01
10:00 8.5849OSO15OSO01
11:00 9.7788OSO16OSO21
12:00 9.2859O18O32
13:00 10.87710OSO22O22
14:00 11.17611O25O22
15:00 11.66913O27O11
16:00 9.77815O35O21
17:00 11.76815OSO32OSO11
18:00 11.5649O23NNO11
19:00 10.26411NNE24NNE12
20:00 9.46812NNE25NNE02
21:00 8.5699N19NNE02
22:00 7.77512N22NNE02
23:00 7.47615NNE24NE62
minuit 6.98012NNE22NNE72

Graphique du 02-08-2019

 

Serveur OMMA